Regional Weather Roundup
Issued by NWS

Home | Current Version | Previous Version | Text Only | Print | Product List | Glossary On
Versions: 1 2 3 4 5 6 7 8 9 10 11 12 13 14 15 16 17 18 19 20 21 22 23 24 25 26 27 28 29 30 31 32 33 34 35 36 37 38 39 40 41 42 43 44 45 46 47 48 49 50
000
ASCA42 TJSJ 070410
RWRPR
PUERTO RICO/U.S. VIRGIN ISLANDS HOURLY WEATHER ROUNDUP
NATIONAL WEATHER SERVICE SAN JUAN PR
1200 AM AST THU MAY 07 2015

PRZ001-004-070500-
PUERTO RICO

CITY           SKY/WX    TMP DP  RH WIND       PRES   REMARKS
SAN JUAN LMM   PTCLDY    79  72  78 E9        30.06F
PONCE          PTCLDY    79  70  73 CALM      30.01S
CEIBA          CLOUDY    81  72  74 E8        30.08F
$$

PRZ006-007-070500-
U.S. VIRGIN ISLANDS

CITY           SKY/WX    TMP DP  RH WIND       PRES   REMARKS
CHARLOTTE AMA  CLOUDY    81  72  74 E10       30.06S
CHRISTIANSTED  CLOUDY    81  70  69 E13       30.05F
$$

HOURLY WEATHER ROUNDUP FOR THE NEWS MEDIA

CITY           SKY/WX    TMP DP  RH WIND       PRES   REMARKS
ORLANDO        PTCLDY    71  66  84 W3        30.07R
NEW YORK       PTCLDY    56  45  66 CALM      30.25S
NEWARK         CLEAR     57  47  69 CALM      30.24S
CHICAGO        PTCLDY    56  50  80 NE6       30.07S
HARTFORD       CLEAR     46  37  71 S3        30.22F
BOSTON         PTCLDY    58  33  39 SW12      30.21R
DALLAS         MOCLDY    75  68  78 SE16      29.89R
PHILADELPHIA   PTCLDY    60  51  72 CALM      30.24R
LOS ANGELES    PTCLDY    58  52  80 W10       29.86R
WASHINGTON DC  MOCLDY    65  62  90 E3        30.20S


USA.gov is the U.S. government's official web portal to all federal, state and local government web resources and services.